Regional Weather Roundup
Issued by NWS

Home | Current Version | Previous Version | Graphics & Text | Print | Product List | Glossary On
Versions: 1 2 3 4 5 6 7 8 9 10 11 12 13 14 15 16 17 18 19 20 21 22 23 24 25 26 27 28 29 30 31 32 33 34 35 36 37 38 39 40 41 42 43 44 45 46 47 48
000
ASUS43 KDMX 201407
RWRIA

WEATHER ROUNDUP FOR IOWA
NATIONAL WEATHER SERVICE DES MOINES IA
900 AM CDT SAT SEP 20 2014

NOTE: "FAIR" INDICATES FEW OR NO CLOUDS BELOW 12,000 FEET WITH NO
SIGNIFICANT WEATHER AND/OR OBSTRUCTIONS TO VISIBILITY.

* - THESE STATIONS ARE NOT NWS STATIONS...THUS NOT UNDER NWS
QUALITY CONTROL.  THEY ALSO DO NOT REPORT WEATHER SUCH
AS PRECIPITATION OR FOG.

IAZ001>003-012>014-020>022-031>034-043>046-201500-
   NORTHWEST IOWA

CITY           SKY/WX    TMP DP  RH WIND       PRES   REMARKS
CARROLL *      PTSUNNY   70  66  88 W9        29.90R
CHEROKEE *     LGT RAIN  64  64 100 W6        29.92R
DENISON *      MOSUNNY   68  68 100 W7        29.91R FOG
LE MARS *      SUNNY     64  63  94 CALM      29.90S
ORANGE CITY *  SUNNY     64  61  88 W3        29.90R
SHELDON *      SUNNY     63  61  94 NW6       29.89R
SIOUX CITY     PTSUNNY   64  62  93 NW8       29.93R
SPENCER        CLOUDY    64  61  90 NW6       29.88F
STORM LAKE *   PTSUNNY   66  66 100 W5        29.91S
$$

IAZ055>058-069>071-079>083-090>094-201500-
   SOUTHWEST IOWA

CITY           SKY/WX    TMP DP  RH WIND       PRES   REMARKS
ATLANTIC *     PTSUNNY   70  66  88 S7        29.93R
AUDUBON *      SUNNY     68  63  83 SW7       29.93R
CLARINDA *     DRIZZLE   68  68 100 NW3       29.98R
COUNCIL BLFS * SUNNY     68  66  94 SW9       29.92S
CRESTON *      CLOUDY    66  66 100 SW9       29.95S FOG
HARLAN  *      MOSUNNY   68  66  94 SW14G21   29.95R
LAMONI         CLOUDY    66  66 100 S10       29.93F FOG
RED OAK *      HVY RAIN  66  63  88 SW10G21   29.92F VSB 3/4
SHENANDOAH *   LGT RAIN  66  64  94 W8        29.95R
$$

IAZ047>049-059>061-072>074-084-201500-
   CENTRAL IOWA

CITY           SKY/WX    TMP DP  RH WIND       PRES   REMARKS
AMES           CLOUDY    66  62  87 W3        29.86F
ANKENY *       SUNNY     68  64  88 CALM      29.86R
CHARITON *     SUNNY     68  66  94 SW6G18    29.86F FOG
DES MOINES     CLOUDY    69  65  86 SW7       29.85F
GRINNELL*      CLOUDY    66  64  94 SW6       29.86F FOG
KNOXVILLE *    CLOUDY    68  66  94 SW15G22   29.84F FOG
MARSHALLTOWN   CLOUDY    67  64  90 SW10      29.84F
PELLA *        CLOUDY    68  68 100 NW8       29.88F FOG
PERRY *          N/A     68  66  94 W10       29.87R
$$

IAZ004>006-015-016-023>025-035-036-201500-
   NORTH CENTRAL IOWA

CITY           SKY/WX    TMP DP  RH WIND       PRES   REMARKS
ALGONA *       CLOUDY    64  64 100 S7        29.86F
CLARION *      LGT RAIN  66  64  94 W12       29.88R
ESTHERVILLE    CLOUDY    63  62  97 SW5       29.87R
FORT DODGE *   CLOUDY    66  63  88 NW8       29.90R
MASON CITY     TSTM      65  64  97 S17       29.85F FOG
FOREST CITY *  LGT RAIN  64  64 100 SW13      29.86R
IOWA FALLS *     N/A     66  63  88 SW10      29.86S
$$

IAZ007>011-017>019-026>030-037>042-050>054-066-201500-
   NORTHEAST IOWA

CITY           SKY/WX    TMP DP  RH WIND       PRES   REMARKS
CEDAR RAPIDS   CLOUDY    66  66 100 S3        29.83F FOG
CHARLES CITY * CLOUDY    66  63  88 SW9       29.85F
CLINTON *      CLOUDY    66  61  82 SW9       29.89R
DECORAH *      CLOUDY    64  63  94 W8G18     29.82R
DUBUQUE        CLOUDY    66  63  90 SW15      29.83F
MONTICELLO *   SUNNY     68  66  94 S6G14     29.83F
OELWEIN *      MOSUNNY   68  63  83 SW17G24   29.82F
WATERLOO       CLOUDY    68  63  84 SW13      29.82F
$$

IAZ064-065-067-068-078-201500-
   EAST CENTRAL IOWA

CITY           SKY/WX    TMP DP  RH WIND       PRES   REMARKS
DAVENPORT      CLOUDY    65  61  87 S17       29.85F FOG
IOWA CITY      CLOUDY    67  66  97 W5        29.86R
MT. PLEASANT * CLOUDY    66  64  94 S7        29.91F FOG
MUSCATINE *    SUNNY     66  64  94 S13       29.84F
QUAD CITIES    CLOUDY    66  62  87 S16G24    29.85F
$$

IAZ062-063-075>077-085>089-095>099-201500-
   SOUTHEAST IOWA

CITY           SKY/WX    TMP DP  RH WIND       PRES   REMARKS
BURLINGTON     CLOUDY    66  64  93 SW9       29.92F FOG
FAIRFIELD *    SUNNY     66  64  94 S10       29.89F
FORT MADISON * MOSUNNY   68  64  88 S9        29.94F
KEOKUK *       SUNNY     68  64  88 SW10      29.94F
OSKALOOSA *      N/A     68  66  94 S15       29.86F
CENTERVILLE *  SUNNY     68  68 100 S8        29.94F
OTTUMWA        CLOUDY    69  65  86 SW10      29.88F
WASHINGTON *   SUNNY     66  66 100 S13G21    29.85F FOG
$$

ABBREVIATIONS USED IN REMARKS
   TC - TEMPERATURES IN CELSIUS
  WCI - WIND CHILL INDEX
   HX - HEAT INDEX
  VSB - VISIBILITY
$$




USA.gov is the U.S. government's official web portal to all federal, state and local government web resources and services.